Location: Casteau
(50.5142°N, 4.0161°E)
Time: 15:25:01
(UTC+00:00)

Terra - Pass Details

Date: 18 September 2020
Orbit: 701 x 703 km, 98.2° (Epoch: 24 October)

Event Time Altitude Azimuth Distance (km) Brightness Sun altitude
Exits shadow 20:19:12 22° 49° (NE) 1,522 3.4 -23.1°
Drops below altitude 10° 20:22:18 10° 9° (N) 2,184 4.6 -23.5°
Sets 20:24:57 0° 355° (N) 3,107 5.7 -23.8°
